#timestamp,LO_Frequency,Hit,StdDev 
1673992815.9,286047000.9,N
1673992835.7,286047000.9,N
1673992855.6,286047001.1,N
1673992875.4,286047001.0,N
1673992895.2,286047000.0,N
1673992915.1,286047000.9,N
1673992916.0,286047000.9,N
1673992935.8,286047000.8,N
1673992955.6,286047001.1,N
1673992975.5,286046998.6,N
1673992995.3,286046998.6,N
1673993015.1,286046998.3,N
1673993035.9,286047001.0,N
1673993055.7,286047000.6,N
1673993075.5,286047000.0,N
1673993095.4,286047000.4,N
1673993115.2,286047000.3,N
1673993135.0,286047000.2,N
1673993135.9,286047000.2,N
1673993155.8,286047002.6,N
1673993175.6,286047002.5,N
1673993195.4,286046999.9,N
1673993215.3,286047002.8,N
1673993235.1,286047000.1,N
1673993255.8,286047002.7,N
1673993275.7,286047000.4,N
1673993295.5,286047001.2,N
1673993315.3,286046999.9,N
1673993335.2,286046998.3,N
1673993355.9,286046998.5,N
1673993375.7,286047000.5,N
1673993395.6,286047002.8,N
1673993415.4,286046999.8,N
1673993435.2,286047002.3,N
1673993455.1,286047000.2,N
1673993456.0,286047000.2,N
1673993475.8,286047000.2,N
1673993495.6,286047000.2,N
1673993515.5,286047000.3,N
1673993535.3,286047000.9,N
1673993555.1,286047000.9,N
1673993575.9,286047000.6,N
1673993595.7,286046998.3,N
1673993615.5,286047001.1,N
1673993635.4,286047000.2,N
1673993655.2,286047000.8,N
1673993675.0,286047001.0,N
1673993675.9,286047001.0,N
1673993695.8,286047000.0,N
1673993715.6,286047000.4,N
1673993735.4,286046998.5,N
1673993755.3,286047000.4,N
1673993775.1,286047000.2,N
1673993776.0,286047000.2,N
1673993795.8,286047000.6,N
1673993815.7,286047000.9,N
1673993835.5,286046999.7,N
1673993855.3,286047000.5,N
1673993875.2,286047001.0,N
1673993895.9,286047000.7,N
1673993915.7,286047000.8,N
1673993935.5,286046999.0,N
1673993955.4,286046998.4,N
1673993975.2,286046998.9,N
1673993995.0,286047000.0,N
1673993995.9,286047000.0,N
1673994015.8,286047000.3,N
1673994035.6,286047000.5,N
1673994055.4,286047001.1,N
1673994075.3,286047001.1,N
1673994095.1,286047000.8,N
1673994115.8,286047000.3,N
1673994135.7,286047001.0,N
1673994155.5,286047000.0,N
1673994175.3,286047000.0,N
1673994195.2,286046998.7,N
1673994215.0,286047000.6,N
1673994215.9,286047000.6,N
1673994235.7,286047001.1,N
1673994255.6,286047000.9,N
1673994275.4,286047000.9,N
1673994295.2,286046998.1,N
1673994315.1,286047000.8,N
1673994316.0,286047000.8,N
1673994335.8,286046999.4,N
1673994355.6,286046999.2,N
1673994375.5,286046998.7,N
1673994395.3,286046999.1,N
1673994415.1,286046999.0,N
1673994435.9,286046998.4,N
1673994455.7,286046998.4,N
1673994475.5,286046998.9,N
1673994495.4,286046998.7,N
1673994515.2,286046998.7,N
1673994535.0,286046998.5,N
1673994535.9,286046998.5,N
1673994555.8,286047001.1,N
1673994575.6,286047000.5,N
1673994595.4,286047001.1,N
1673994615.3,286047000.8,N
1673994635.1,286046998.9,N
1673994655.8,286046998.8,N
1673994675.7,286047000.6,N
1673994695.5,286046999.2,N
1673994715.3,286046997.7,N
1673994735.2,286046996.5,Y
1673994755.0,286046996.8,P
1673994755.9,286046996.8,N
1673994775.7,286046997.3,N
1673994795.6,286046998.6,N
1673994815.4,286047000.1,N
1673994835.2,286047000.7,N
1673994855.1,286047001.1,N
1673994856.0,286047001.1,N
1673994875.8,286047001.2,N
1673994895.6,286046998.5,N
1673994915.5,286047001.2,N
1673994935.3,286046999.9,N
1673994955.1,286047000.9,N
1673994975.9,286046999.3,N
1673994995.7,286046998.5,N
1673995015.5,286047001.2,N
1673995035.4,286046998.3,N
1673995055.2,286046998.3,N
1673995075.0,286046998.1,N
1673995076.0,286046998.1,N
1673995095.8,286047000.1,N
1673995115.6,286047000.3,N
1673995135.4,286046999.8,N
1673995155.3,286047000.5,N
1673995175.1,286047001.2,N
1673995195.8,286046998.1,N
1673995215.7,286046998.3,N
1673995235.5,286046998.8,N
1673995255.3,286046998.6,N
1673995275.2,286046998.9,N
1673995295.0,286046998.9,N
1673995295.9,286046998.9,N
1673995315.7,286046996.7,N
1673995335.6,286046995.8,Y
1673995355.4,286046995.5,P
1673995375.2,286046994.9,N
1673995395.1,286046996.4,N
1673995396.0,286046996.4,N
1673995415.8,286046995.3,Y
1673995435.7,286046998.9,P
1673995455.5,286046998.2,N
1673995475.3,286046998.6,N
1673995495.2,286046998.4,N
1673995515.9,286046999.3,N
1673995535.7,286046998.2,N
1673995555.6,286046999.6,N
1673995575.4,286046998.9,N
1673995595.2,286046998.4,N
1673995615.1,286046999.0,N
1673995616.0,286046999.0,N
1673995635.8,286046998.7,N
1673995655.6,286046998.5,N
1673995675.5,286046998.8,N
1673995695.3,286046996.9,Y
1673995715.1,286046999.6,P
1673995735.9,286046998.6,N
1673995755.7,286046998.1,P
1673995775.5,286046998.5,N
1673995795.4,286046998.7,N
1673995815.2,286046999.4,N
1673995835.0,286046997.1,Y
1673995835.9,286046997.1,P
1673995855.8,286046997.2,P
1673995875.6,286046996.9,P
1673995895.4,286046999.3,N
1673995915.3,286046999.6,N
1673995935.1,286046996.6,Y
1673995936.0,286046996.6,P
1673995955.8,286046999.1,N
1673995975.7,286046998.8,N
1673995995.5,286046996.8,Y
1673996015.3,286046999.0,P
1673996035.2,286046998.3,P
1673996055.9,286046998.6,P
1673996075.7,286046998.4,Y
1673996095.6,286047002.0,P
1673996115.4,286047002.5,N
1673996135.2,286047000.6,N
1673996155.1,286047000.7,N
1673996156.0,286047000.7,N
1673996175.8,286046998.2,N
1673996195.6,286046995.3,Y
1673996215.5,286046996.7,P
1673996235.3,286046998.3,N
1673996255.1,286046996.6,N
1673996275.9,286046996.6,N
1673996295.7,286046997.0,N
1673996315.5,286046997.1,N
1673996335.4,286046996.5,N
1673996355.2,286046999.6,N
1673996375.0,286046997.0,N
1673996375.9,286046997.0,N
1673996395.8,286046996.9,N
